User: anonymous   Login
Location: Elstree
(51.6403°N, 0.2969°W)
Time: 00:22:33
(UTC+00:00)
Language:

Cosmos 1461 - Orbit

View from above orbital plane
View from above orbital plane
View from above satellite
View from above satellite

Ground track
Ground track

The orbit data is extracted from the following two-line orbital elements,

1 14064U 83044A   21138.44130423  .00000321  00000-0  40718-4 0  9990
2 14064  64.9991 171.0097 0107220 207.4939 152.0482 14.95190337937199
Epoch (UTC): 18 May 2021 10:35:28
Eccentricity: 0.0107220
inclination: 64.9991°
perigee height: 507 km
apogee height: 656 km
right ascension of ascending node: 171.0097°
argument of perigee: 207.4939°
revolutions per day: 14.95190337
mean anomaly at epoch: 152.0482°
orbit number at epoch: 93719

The dashed part of the orbit path shows where the satellite is in the earth's shadow,  

DLR